| time (UTC) | temp F | wind direction | speed MPH | gust MPH | rain 1hr in | rain 24hr in | rain mn in | humidity % | barometer mb |
| 20260504023042 | 49 | 144 | 2.0 | 5.0 | 0.00 | 0.00 | 0.00 | 58 | 1014.0 |
| 20260504022540 | 49 | 142 | 3.0 | 5.0 | 0.00 | 0.00 | 0.00 | 57 | 1014.0 |
| 20260504022040 | 50 | 115 | 1.0 | 3.0 | 0.00 | 0.00 | 0.00 | 58 | 1014.0 |
| 20260504021532 | 50 | 115 | 0.0 | 0.0 | 0.00 | 0.00 | 0.00 | 56 | 1014.0 |
| 20260504021024 | 50 | 115 | 0.0 | 0.0 | 0.00 | 0.00 | 0.00 | 56 | 1014.0 |
| 20260504020540 | 51 | 115 | 0.0 | 0.0 | 0.00 | 0.00 | 0.00 | 53 | 1013.9 |
| 20260504020041 | 51 | 115 | 0.0 | 0.0 | 0.00 | 0.00 | 0.00 | 54 | 1013.8 |
| 20260504015540 | 51 | 115 | 0.0 | 0.0 | 0.00 | 0.00 | 0.00 | 53 | 1013.8 |
| 20260504015037 | 51 | 115 | 0.0 | 0.0 | 0.00 | 0.00 | 0.00 | 51 | 1013.7 |
| 20260504014524 | 52 | 115 | 0.0 | 0.0 | 0.00 | 0.00 | 0.00 | 50 | 1013.7 |
| 20260504014104 | 52 | 115 | 0.0 | 0.0 | 0.00 | 0.00 | 0.00 | 49 | 1013.7 |
| 20260504013601 | 52 | 115 | 0.0 | 2.0 | 0.00 | 0.00 | 0.00 | 48 | 1013.7 |
| 20260504013042 | 53 | 115 | 1.0 | 3.0 | 0.00 | 0.00 | 0.00 | 47 | 1013.7 |
| 20260504012602 | 53 | 113 | 1.0 | 3.0 | 0.00 | 0.00 | 0.00 | 48 | 1013.6 |
| 20260504012043 | 53 | 247 | 0.0 | 4.0 | 0.00 | 0.00 | 0.00 | 49 | 1013.6 |
| 20260504011602 | 53 | 247 | 0.0 | 4.0 | 0.00 | 0.00 | 0.00 | 47 | 1013.5 |
| 20260504011040 | 53 | 209 | 2.0 | 3.0 | 0.00 | 0.00 | 0.00 | 44 | 1013.4 |
| 20260504010556 | 54 | 209 | 1.0 | 2.0 | 0.00 | 0.00 | 0.00 | 44 | 1013.4 |
| 20260504010033 | 54 | 209 | 1.0 | 3.0 | 0.00 | 0.00 | 0.00 | 44 | 1013.4 |
| 20260504005525 | 55 | 209 | 2.0 | 3.0 | 0.00 | 0.00 | 0.00 | 45 | 1013.5 |
| 20260504005044 | 55 | 254 | 1.0 | 2.0 | 0.00 | 0.00 | 0.00 | 43 | 1013.4 |
| 20260504004536 | 55 | 254 | 0.0 | 4.0 | 0.00 | 0.00 | 0.00 | 41 | 1013.4 |
| 20260504004040 | 55 | 254 | 2.0 | 7.0 | 0.00 | 0.00 | 0.00 | 41 | 1013.3 |
| 20260504003533 | 55 | 259 | 3.0 | 8.0 | 0.00 | 0.00 | 0.00 | 40 | 1013.3 |
| 20260504003031 | 56 | 249 | 4.0 | 8.0 | 0.00 | 0.00 | 0.00 | 39 | 1013.3 |
| 20260504002524 | 56 | 267 | 2.0 | 5.0 | 0.00 | 0.00 | 0.00 | 39 | 1013.2 |
| 20260504002105 | 56 | 273 | 3.0 | 8.0 | 0.00 | 0.00 | 0.00 | 39 | 1013.2 |
| 20260504001603 | 57 | 258 | 4.0 | 8.0 | 0.00 | 0.00 | 0.00 | 39 | 1013.3 |
| 20260504001041 | 57 | 255 | 3.0 | 9.0 | 0.00 | 0.00 | 0.00 | 39 | 1013.2 |
| 20260504000540 | 57 | 244 | 4.0 | 9.0 | 0.00 | 0.00 | 0.00 | 38 | 1013.2 |
| 20260504000057 | 58 | 258 | 3.0 | 10.0 | 0.00 | 0.00 | 0.00 | 38 | 1013.2 |
| 20260503235553 | 58 | 247 | 4.0 | 10.0 | 0.00 | 0.00 | 0.00 | 37 | 1013.1 |
| 20260503235027 | 58 | 242 | 5.0 | 11.0 | 0.00 | 0.00 | 0.00 | 36 | 1013.1 |
| 20260503234603 | 58 | 262 | 6.0 | 11.0 | 0.00 | 0.00 | 0.00 | 36 | 1013.0 |
| 20260503234037 | 59 | 269 | 7.0 | 10.0 | 0.00 | 0.00 | 0.00 | 36 | 1012.9 |
| 20260503233529 | 59 | 253 | 6.0 | 10.0 | 0.00 | 0.00 | 0.00 | 35 | 1013.0 |
| 20260503233051 | 59 | 272 | 4.0 | 10.0 | 0.00 | 0.00 | 0.00 | 36 | 1012.9 |
| 20260503232551 | 59 | 252 | 5.0 | 12.0 | 0.00 | 0.00 | 0.00 | 35 | 1012.9 |
| 20260503232023 | 60 | 311 | 5.0 | 12.0 | 0.00 | 0.00 | 0.00 | 35 | 1012.8 |
| 20260503231603 | 60 | 270 | 4.0 | 12.0 | 0.00 | 0.00 | 0.00 | 34 | 1012.8 |
| 20260503231041 | 60 | 286 | 8.0 | 14.0 | 0.00 | 0.00 | 0.00 | 33 | 1012.7 |
| 20260503230533 | 60 | 292 | 7.0 | 14.0 | 0.00 | 0.00 | 0.00 | 33 | 1012.7 |
| 20260503230023 | 61 | 298 | 4.0 | 10.0 | 0.00 | 0.00 | 0.00 | 33 | 1012.6 |
| 20260503225542 | 61 | 280 | 4.0 | 10.0 | 0.00 | 0.00 | 0.00 | 33 | 1012.7 |
| 20260503225041 | 61 | 300 | 5.0 | 13.0 | 0.00 | 0.00 | 0.00 | 33 | 1012.7 |
| 20260503224539 | 61 | 271 | 7.0 | 19.0 | 0.00 | 0.00 | 0.00 | 33 | 1012.7 |
| 20260503224034 | 61 | 277 | 7.0 | 19.0 | 0.00 | 0.00 | 0.00 | 32 | 1012.6 |
| 20260503223553 | 62 | 234 | 8.0 | 15.0 | 0.00 | 0.00 | 0.00 | 32 | 1012.7 |
| 20260503223025 | 62 | 221 | 9.0 | 14.0 | 0.00 | 0.00 | 0.00 | 31 | 1012.7 |
| 20260503222538 | 62 | 251 | 5.0 | 12.0 | 0.00 | 0.00 | 0.00 | 33 | 1012.7 |
| 20260503222032 | 62 | 278 | 6.0 | 12.0 | 0.00 | 0.00 | 0.00 | 34 | 1012.7 |
| 20260503221525 | 62 | 265 | 4.0 | 16.0 | 0.00 | 0.00 | 0.00 | 33 | 1012.8 |
| 20260503221044 | 62 | 244 | 8.0 | 16.0 | 0.00 | 0.00 | 0.00 | 33 | 1012.8 |
| 20260503220543 | 63 | 254 | 6.0 | 13.0 | 0.00 | 0.00 | 0.00 | 32 | 1012.8 |
| 20260503220042 | 63 | 270 | 4.0 | 14.0 | 0.00 | 0.00 | 0.00 | 32 | 1012.7 |
| 20260503215541 | 63 | 272 | 8.0 | 14.0 | 0.00 | 0.00 | 0.00 | 31 | 1012.7 |
| 20260503215101 | 64 | 279 | 7.0 | 14.0 | 0.00 | 0.00 | 0.00 | 32 | 1012.7 |
| 20260503214540 | 64 | 318 | 8.0 | 14.0 | 0.00 | 0.00 | 0.00 | 31 | 1012.7 |
| 20260503214041 | 64 | 315 | 6.0 | 17.0 | 0.00 | 0.00 | 0.00 | 31 | 1012.8 |
| 20260503213540 | 64 | 296 | 8.0 | 17.0 | 0.00 | 0.00 | 0.00 | 30 | 1012.8 |
| 20260503213040 | 64 | 283 | 8.0 | 19.0 | 0.00 | 0.00 | 0.00 | 31 | 1012.8 |
| 20260503212535 | 64 | 277 | 8.0 | 19.0 | 0.00 | 0.00 | 0.00 | 30 | 1012.8 |
| 20260503212031 | 64 | 250 | 8.0 | 20.0 | 0.00 | 0.00 | 0.00 | 32 | 1012.8 |
| 20260503211526 | 63 | 250 | 9.0 | 20.0 | 0.00 | 0.00 | 0.00 | 32 | 1012.7 |
| 20260503211044 | 63 | 224 | 11.0 | 18.0 | 0.00 | 0.00 | 0.00 | 32 | 1012.7 |
| 20260503210542 | 62 | 279 | 10.0 | 20.0 | 0.00 | 0.00 | 0.00 | 33 | 1012.7 |
| 20260503210104 | 61 | 207 | 12.0 | 20.0 | 0.00 | 0.00 | 0.00 | 33 | 1012.7 |
| 20260503205538 | 61 | 250 | 7.0 | 16.0 | 0.00 | 0.00 | 0.00 | 34 | 1012.8 |
| 20260503205058 | 61 | 278 | 10.0 | 16.0 | 0.00 | 0.00 | 0.00 | 33 | 1012.8 |
| 20260503204558 | 62 | 263 | 5.0 | 14.0 | 0.00 | 0.00 | 0.00 | 34 | 1012.8 |
| 20260503204041 | 63 | 302 | 8.0 | 14.0 | 0.00 | 0.00 | 0.00 | 32 | 1012.8 |
| 20260503203541 | 64 | 250 | 7.0 | 15.0 | 0.00 | 0.00 | 0.00 | 31 | 1012.9 |
| 20260503203041 | 64 | 305 | 8.0 | 15.0 | 0.00 | 0.00 | 0.00 | 31 | 1012.9 |
| 20260503202540 | 64 | 259 | 5.0 | 14.0 | 0.00 | 0.00 | 0.00 | 30 | 1012.9 |
| 20260503202043 | 64 | 290 | 8.0 | 17.0 | 0.00 | 0.00 | 0.00 | 31 | 1013.1 |
| 20260503201603 | 64 | 279 | 12.0 | 17.0 | 0.00 | 0.00 | 0.00 | 33 | 1013.1 |
| 20260503201041 | 63 | 309 | 4.0 | 13.0 | 0.00 | 0.00 | 0.00 | 34 | 1013.0 |
| 20260503200539 | 63 | 293 | 7.0 | 13.0 | 0.00 | 0.00 | 0.00 | 35 | 1013.1 |
| 20260503200034 | 63 | 306 | 4.0 | 13.0 | 0.00 | 0.00 | 0.00 | 32 | 1013.1 |
| 20260503195528 | 63 | 265 | 8.0 | 13.0 | 0.00 | 0.00 | 0.00 | 33 | 1013.1 |
| 20260503195044 | 63 | 286 | 5.0 | 12.0 | 0.00 | 0.00 | 0.00 | 32 | 1013.3 |
| 20260503194604 | 63 | 292 | 5.0 | 13.0 | 0.00 | 0.00 | 0.00 | 32 | 1013.4 |
| 20260503194105 | 64 | 329 | 8.0 | 14.0 | 0.00 | 0.00 | 0.00 | 31 | 1013.4 |
| 20260503193541 | 65 | 259 | 7.0 | 14.0 | 0.00 | 0.00 | 0.00 | 32 | 1013.5 |
| 20260503193042 | 65 | 267 | 7.0 | 18.0 | 0.00 | 0.00 | 0.00 | 30 | 1013.6 |
| 20260503192536 | 66 | 262 | 7.0 | 18.0 | 0.00 | 0.00 | 0.00 | 31 | 1013.7 |
| 20260503192033 | 66 | 281 | 9.0 | 19.0 | 0.00 | 0.00 | 0.00 | 32 | 1013.7 |
| 20260503191527 | 66 | 306 | 9.0 | 19.0 | 0.00 | 0.00 | 0.00 | 31 | 1013.8 |
| 20260503191106 | 66 | 296 | 11.0 | 16.0 | 0.00 | 0.00 | 0.00 | 30 | 1013.7 |
| 20260503190602 | 66 | 242 | 7.0 | 17.0 | 0.00 | 0.00 | 0.00 | 31 | 1013.8 |
| 20260503190038 | 65 | 32 | 6.0 | 17.0 | 0.00 | 0.00 | 0.00 | 32 | 1013.8 |
| 20260503185539 | 64 | 324 | 11.0 | 18.0 | 0.00 | 0.00 | 0.00 | 33 | 1013.9 |
| 20260503185041 | 65 | 335 | 9.0 | 18.0 | 0.00 | 0.00 | 0.00 | 30 | 1014.1 |
| 20260503184536 | 65 | 292 | 7.0 | 18.0 | 0.00 | 0.00 | 0.00 | 33 | 1014.0 |
| 20260503184033 | 64 | 315 | 4.0 | 20.0 | 0.00 | 0.00 | 0.00 | 31 | 1014.1 |
| 20260503183529 | 64 | 269 | 9.0 | 20.0 | 0.00 | 0.00 | 0.00 | 34 | 1014.2 |
| 20260503183025 | 63 | 275 | 8.0 | 18.0 | 0.00 | 0.00 | 0.00 | 32 | 1014.1 |
| 20260503182538 | 64 | 292 | 9.0 | 18.0 | 0.00 | 0.00 | 0.00 | 31 | 1014.2 |
| 20260503182034 | 63 | 265 | 6.0 | 15.0 | 0.00 | 0.00 | 0.00 | 33 | 1014.2 |
| 20260503181529 | 63 | 279 | 9.0 | 19.0 | 0.00 | 0.00 | 0.00 | 34 | 1014.2 |
| 20260503181025 | 63 | 293 | 7.0 | 19.0 | 0.00 | 0.00 | 0.00 | 30 | 1014.3 |
| 20260503180543 | 64 | 322 | 8.0 | 17.0 | 0.00 | 0.00 | 0.00 | 28 | 1014.4 |
| 20260503180037 | 64 | 328 | 10.0 | 16.0 | 0.00 | 0.00 | 0.00 | 30 | 1014.3 |
| 20260503175558 | 64 | 318 | 6.0 | 15.0 | 0.00 | 0.00 | 0.00 | 29 | 1014.2 |
| 20260503175100 | 63 | 328 | 5.0 | 13.0 | 0.00 | 0.00 | 0.00 | 35 | 1014.3 |
| 20260503174540 | 62 | 329 | 6.0 | 16.0 | 0.00 | 0.00 | 0.00 | 33 | 1014.4 |
| 20260503174103 | 62 | 286 | 6.0 | 16.0 | 0.00 | 0.00 | 0.00 | 32 | 1014.4 |
| 20260503173541 | 62 | 248 | 7.0 | 26.0 | 0.00 | 0.00 | 0.00 | 35 | 1014.5 |
| 20260503173042 | 62 | 269 | 13.0 | 26.0 | 0.00 | 0.00 | 0.00 | 33 | 1014.4 |
| 20260503172537 | 62 | 264 | 12.0 | 21.0 | 0.00 | 0.00 | 0.00 | 32 | 1014.4 |
| 20260503172059 | 61 | 235 | 12.0 | 21.0 | 0.00 | 0.00 | 0.00 | 34 | 1014.5 |
| 20260503171538 | 61 | 234 | 7.0 | 18.0 | 0.00 | 0.00 | 0.00 | 33 | 1014.6 |
| 20260503171040 | 61 | 290 | 6.0 | 18.0 | 0.00 | 0.00 | 0.00 | 34 | 1014.7 |
| 20260503170540 | 61 | 252 | 10.0 | 22.0 | 0.00 | 0.00 | 0.00 | 31 | 1014.7 |
| 20260503150538 | 53 | 288 | 5.0 | 12.0 | 0.00 | 0.00 | 0.00 | 44 | 1015.8 |
| 20260503131026 | 48 | 316 | 7.0 | 16.0 | 0.00 | 0.00 | 0.00 | 53 | 1015.9 |
| 20260503130546 | 47 | 329 | 10.0 | 16.0 | 0.00 | 0.00 | 0.00 | 52 | 1016.0 |
| 20260503110534 | 38 | 294 | 2.0 | 7.0 | 0.00 | 0.00 | 0.00 | 70 | 1015.6 |
| 20260503081537 | 38 | 275 | 1.0 | 3.0 | 0.00 | 0.00 | 0.00 | 70 | 1013.9 |
| 20260503081034 | 38 | 292 | 0.0 | 3.0 | 0.00 | 0.00 | 0.00 | 69 | 1013.9 |
| 20260503080553 | 39 | 292 | 1.0 | 3.0 | 0.00 | 0.00 | 0.00 | 70 | 1013.8 |
| 20260503072552 | 39 | 234 | 1.0 | 3.0 | 0.00 | 0.00 | 0.00 | 68 | 1013.6 |
| 20260503072028 | 40 | 273 | 1.0 | 3.0 | 0.00 | 0.00 | 0.00 | 68 | 1013.5 |
| 20260503071545 | 40 | 273 | 0.0 | 6.0 | 0.00 | 0.00 | 0.00 | 68 | 1013.5 |
| 20260503071042 | 40 | 261 | 2.0 | 6.0 | 0.00 | 0.00 | 0.00 | 67 | 1013.5 |
| 20260503070541 | 40 | 286 | 1.0 | 2.0 | 0.00 | 0.00 | 0.00 | 68 | 1013.4 |
| 20260503055033 | 42 | 290 | 3.0 | 6.0 | 0.00 | 0.00 | 0.00 | 65 | 1013.4 |
| 20260503054525 | 42 | 297 | 3.0 | 6.0 | 0.00 | 0.00 | 0.00 | 65 | 1013.3 |
| 20260503054045 | 42 | 298 | 1.0 | 5.0 | 0.00 | 0.00 | 0.00 | 65 | 1013.4 |
| 20260503053536 | 42 | 288 | 3.0 | 9.0 | 0.00 | 0.00 | 0.00 | 65 | 1013.4 |
| 20260503053033 | 42 | 307 | 3.0 | 9.0 | 0.00 | 0.00 | 0.00 | 65 | 1013.4 |
| 20260503052526 | 42 | 315 | 3.0 | 10.0 | 0.00 | 0.00 | 0.00 | 65 | 1013.4 |
| 20260503052044 | 43 | 285 | 3.0 | 10.0 | 0.00 | 0.00 | 0.00 | 65 | 1013.5 |
| 20260503051536 | 43 | 306 | 4.0 | 9.0 | 0.00 | 0.00 | 0.00 | 66 | 1013.6 |
| 20260503051041 | 43 | 292 | 4.0 | 8.0 | 0.00 | 0.00 | 0.00 | 67 | 1013.5 |
| 20260503050539 | 43 | 336 | 4.0 | 8.0 | 0.00 | 0.00 | 0.00 | 67 | 1013.4 |
| 20260503050042 | 44 | 321 | 3.0 | 5.0 | 0.00 | 0.00 | 0.00 | 66 | 1013.4 |
| 20260503045537 | 44 | 342 | 3.0 | 5.0 | 0.00 | 0.00 | 0.00 | 66 | 1013.4 |
| 20260503045041 | 44 | 319 | 3.0 | 6.0 | 0.00 | 0.00 | 0.00 | 65 | 1013.5 |
| 20260503044540 | 44 | 351 | 2.0 | 6.0 | 0.00 | 0.00 | 0.00 | 65 | 1013.5 |
| 20260503044034 | 44 | 311 | 3.0 | 6.0 | 0.00 | 0.00 | 0.00 | 65 | 1013.5 |
| 20260503043553 | 44 | 342 | 3.0 | 8.0 | 0.00 | 0.00 | 0.00 | 65 | 1013.5 |
| 20260503043028 | 44 | 355 | 2.0 | 9.0 | 0.00 | 0.00 | 0.00 | 65 | 1013.6 |
| 20260503042543 | 44 | 309 | 6.0 | 9.0 | 0.00 | 0.00 | 0.00 | 65 | 1013.8 |
| 20260503042042 | 44 | 313 | 6.0 | 9.0 | 0.00 | 0.00 | 0.00 | 65 | 1013.7 |
| 20260503041542 | 44 | 308 | 3.0 | 5.0 | 0.00 | 0.00 | 0.00 | 65 | 1013.8 |
| 20260503041043 | 44 | 301 | 2.0 | 5.0 | 0.00 | 0.00 | 0.00 | 66 | 1013.9 |
| 20260503040533 | 44 | 278 | 3.0 | 5.0 | 0.00 | 0.00 | 0.00 | 65 | 1013.9 |
| 20260503040032 | 44 | 300 | 1.0 | 3.0 | 0.00 | 0.00 | 0.00 | 64 | 1013.8 |
| 20260503035525 | 44 | 300 | 1.0 | 4.0 | 0.00 | 0.00 | 0.00 | 64 | 1013.9 |
| 20260503035059 | 45 | 299 | 2.0 | 4.0 | 0.00 | 0.00 | 0.00 | 64 | 1014.0 |
| 20260503034542 | 45 | 302 | 2.0 | 7.0 | 0.00 | 0.00 | 0.00 | 63 | 1014.0 |
| 20260503034105 | 45 | 284 | 3.0 | 7.0 | 0.00 | 0.00 | 0.00 | 63 | 1014.0 |
| 20260503033543 | 45 | 321 | 2.0 | 6.0 | 0.00 | 0.00 | 0.00 | 63 | 1014.0 |
| 20260503033105 | 46 | 288 | 3.0 | 6.0 | 0.00 | 0.00 | 0.00 | 62 | 1014.0 |
| 20260503032542 | 46 | 316 | 3.0 | 4.0 | 0.00 | 0.00 | 0.00 | 61 | 1014.0 |
| 20260503032041 | 46 | 309 | 3.0 | 8.0 | 0.00 | 0.00 | 0.00 | 61 | 1013.9 |
| 20260503031538 | 47 | 318 | 4.0 | 9.0 | 0.00 | 0.00 | 0.00 | 60 | 1013.9 |
| 20260503031033 | 47 | 309 | 3.0 | 10.0 | 0.00 | 0.00 | 0.00 | 59 | 1013.8 |
| 20260503030529 | 47 | 338 | 3.0 | 11.0 | 0.00 | 0.00 | 0.00 | 59 | 1013.8 |
| 20260503030024 | 47 | 338 | 4.0 | 11.0 | 0.00 | 0.00 | 0.00 | 60 | 1013.9 |
| 20260503025602 | 47 | 327 | 5.0 | 14.0 | 0.00 | 0.00 | 0.00 | 59 | 1013.9 |
| 20260503025041 | 48 | 309 | 4.0 | 15.0 | 0.00 | 0.00 | 0.00 | 58 | 1013.7 |
| 20260503024533 | 48 | 26 | 6.0 | 15.0 | 0.00 | 0.00 | 0.00 | 59 | 1013.6 |
| 20260503024028 | 48 | 32 | 6.0 | 13.0 | 0.00 | 0.00 | 0.00 | 59 | 1013.8 |
| 20260503023542 | 48 | 333 | 4.0 | 11.0 | 0.00 | 0.00 | 0.00 | 59 | 1013.9 |
| 20260503023103 | 48 | 355 | 5.0 | 11.0 | 0.00 | 0.00 | 0.00 | 59 | 1013.9 |